User: anonymous   Login
Location: Great Northern Moose Lodge
(44.6765°N, 71.1811°W)
Time: 19:14:12
(UTC-05:00)
Language:

Terra - Orbit

View from above orbital plane
View from above orbital plane
View from above satellite
View from above satellite

Ground track
Ground track

The orbit data is extracted from the following two-line orbital elements,

1 25994U 99068A   15028.54410470  .00000342  00000-0  86013-4 0   556
2 25994 098.2019 105.0281 0001394 084.3664 275.7698 14.57117589803884
Epoch (UTC): 28 January 2015 13:03:30
Eccentricity: 0.0001394
inclination: 98.2019°
perigee height: 701 km
apogee height: 703 km
right ascension of ascending node: 105.0281°
argument of perigee: 84.3664°
revolutions per day: 14.57117589
mean anomaly at epoch: 275.7698°
orbit number at epoch: 80388

The dashed part of the orbit path shows where the satellite is in the earth's shadow,  

DLR